Arirang-5

operational
NORAD ID: 39227 Int'l Des: 2013-042 Owner: KARI Country: KR
LEOCIRCULARRETROGRADESSO

Über Arirang-5

Beschreibung wird geladen...

Live-Position

3D-Globus wird geladen...

Nächste Überflüge

Höhenverlauf

Altitude vs Time

uPlot chart will show altitude changes over time

Zweizeiliger Elementsatz

1 39227U 13042A 26063.14939409 .00001519 00000-0 11282-3 0 9992
2 39227 97.6174 251.3097 0003822 124.3507 235.8081 15.04514559688067
Epoch: 4. März 2026 • Age: 19 hours

Aktueller Status

Höhe 570.6 km
Geschwindigkeit 7.57 km/s
Subsatellitenpunkt -44.16°S, 22.21°W
Startdatum 22. Aug. 2013
Alter 12.5 years
Typ earth observation

Technische Details

Klassifizierung Payload
Masse 1400.00 kg
Trockenmasse 1400.00 kg
Gesamtmasse 1400.00 kg
Länge 4.00 m
Durchmesser 2.40 m
Spannweite 7.00 m
Form Hex + panels
Hersteller KARI
Bus-Typ Kompsat
Phasenstatus In Orbit
Besitzer/Staat KARI/KR

Große Konstellationen

Loading constellations...